Home   Weather   Aurora   Past weeks

Flag for USA Past Weather in Aurora, Illinois, USA — Yesterday and Last 2 Weeks

Now
42 °F

Fog.


Feels Like: 42 °F
Forecast: 38 / 49 °F
Wind: No wind

Location: Dupage Airport

Current Time: Jan 22, 2017 at 12:22:55 am

Latest Report: Jan 21, 2017 at 11:52 pm


Visibility: 0 mi

Pressure: 29.59 "Hg

Humidity: 96%

Dew Point: 41 °F

Location of AuroraLocation

Past Weather in Aurora — Graph

°F

Aurora Temperature Yesterday

Maximum temperature yesterday: 58 °F (at 1:52 pm)
Minimum temperature yesterday: 41 °F (at 6:52 pm)
Average temperature yesterday: 48 °F

High & Low Weather Summary for the Past Weeks

 TemperatureHumidityPressure
High58 °F (Jan 21, 1:52 pm)97% (Jan 17, 2:37 am)30.81 "Hg (Jan 17, 2:37 am)
Low0 °F (Jan 6, 10:52 pm)39% (Jan 8, 1:52 pm)29.21 "Hg (Jan 10, 1:31 pm)
Average31 °F80%30.06 "Hg
* Reported Jan 6 10:52 pm — Jan 21 10:52 pm, Aurora, Weather by CustomWeather, © 2017

Note: Actual official high and low records may vary slightly from our data, if they occured in-between our weather recording intervals... More about our weather records

Advertising

Aurora Weather History for the Previous 24 Hours

Scroll right to see more
 ConditionsComfort  
Time TempWeatherWind HumidityBarometerVisibility
10:52 pm
Sat, Jan 21
42 °FFog.5 mph92%29.60 "Hg0 mi
10:23 pm42 °FFog.7 mph92%29.60 "Hg1 mi
9:52 pm42 °FFog.6 mph92%29.59 "Hg0 mi
8:52 pm42 °FFog.7 mph92%29.59 "Hg0 mi
8:29 pm42 °FFog.3 mph89%29.57 "Hg1 mi
8:22 pm42 °FFog.7 mph85%29.57 "Hg1 mi
7:52 pm43 °FClear.8 mph86%29.57 "Hg9 mi
6:52 pm41 °FClear.5 mph89%29.55 "Hg10 mi
5:52 pm47 °FClear.5 mph80%29.52 "Hg10 mi
4:52 pm50 °FSunny.7 mph71%29.51 "Hg10 mi
3:52 pm55 °FSunny.13 mph64%29.49 "Hg10 mi
2:52 pm57 °FPassing clouds.14 mph60%29.46 "Hg10 mi
1:52 pm58 °FScattered clouds.18 mph62%29.45 "Hg10 mi
12:52 pm57 °FPassing clouds.14 mph64%29.45 "Hg10 mi
11:52 am57 °FSunny.14 mph67%29.47 "Hg10 mi
10:52 am55 °FSunny.13 mph74%29.50 "Hg10 mi
9:52 am51 °FSunny.12 mph86%29.51 "Hg9 mi
9:35 am49 °FFog.12 mph93%29.51 "Hg6 mi
8:52 am47 °FFog.8 mph97%29.52 "Hg1 mi
8:19 am47 °FFog.15 mph93%29.51 "Hg1 mi
7:52 am47 °FFog.12 mph93%29.52 "Hg0 mi
7:15 am47 °FFog.13 mph93%29.51 "Hg0 mi
6:59 am48 °FFog.10 mph89%29.51 "Hg1 mi
6:38 am48 °FFog.8 mph93%29.51 "Hg5 mi
6:11 am49 °FFog.9 mph90%29.51 "Hg4 mi
5:59 am49 °FFog.10 mph90%29.51 "Hg5 mi
4:52 am49 °FFog.13 mph90%29.53 "Hg4 mi
4:12 am48 °FFog.6 mph93%29.52 "Hg4 mi
3:52 am48 °FFog.10 mph93%29.53 "Hg4 mi
2:52 am47 °FFog.8 mph93%29.55 "Hg4 mi
1:52 am47 °FFog.8 mph93%29.58 "Hg4 mi
12:52 am46 °FFog.7 mph93%29.58 "Hg5 mi
12:08 am46 °FFog.7 mph93%29.59 "Hg5 mi
Weather by CustomWeather, © 2017

See weather overviewHow to use our weather pages